Regional Weather Roundup
Issued by NWS

Home | Current Version | Previous Version | Text Only | Print | Product List | Glossary On
Versions: 1 2 3 4 5 6 7 8 9 10 11 12 13 14 15 16 17 18 19 20 21 22 23 24 25 26 27 28 29 30 31 32 33 34 35 36 37 38 39 40 41 42 43 44 45 46 47 48 49 50
000
ASUS44 KLUB 042010
RWRTX
WEST TEXAS WEATHER ROUNDUP
NATIONAL WEATHER SERVICE LUBBOCK TX
200 PM CST SUN DEC 04 2016

NOTE: "FAIR" INDICATES FEW OR NO CLOUDS BELOW 12,000 FEET WITH NO
SIGNIFICANT WEATHER AND/OR OBSTRUCTIONS TO VISIBILITY.

TXZ004-006>008-010-012-014-016-OKZ002-042100-
TEXAS PANHANDLE/OKLAHOMA PANHANDLE

CITY           SKY/WX    TMP DP  RH WIND       PRES   REMARKS
AMARILLO       SUNNY     51  20  29 NW8       30.08F
BORGER         SUNNY     51  22  31 NW5       30.07F
CANADIAN       SUNNY     53  25  33 N8        30.06F
DALHART        SUNNY     49  18  29 MISG      30.06F
DUMAS          SUNNY     47  20  34 N5        30.06F
GUYMON         SUNNY     50  20  30 CALM      30.04F
HEREFORD       SUNNY     51  23  33 N6G17     30.09F
PAMPA          SUNNY     51  23  34 N5        30.07F
PERRYTON       SUNNY     50  29  45 N5        30.05F
$$

TXZ026-029-035-045-048-042100-
SOUTHERN PANHANDLE/SOUTH PLAINS/ROLLING PLAINS

CITY           SKY/WX    TMP DP  RH WIND       PRES   REMARKS
CHILDRESS      SUNNY     54  36  50 N6        30.08F
SEMINOLE       SUNNY     49  36  59 NE9       30.07F
LUBBOCK        MOSUNNY   52  32  46 VRB7      30.07F
PLAINVIEW      SUNNY     49  26  39 NE6       30.06F
SNYDER         CLOUDY    46  38  74 NE8       30.09F
$$

TXZ052-054-060>062-072-078-127-140-154-169-042100-
PERMIAN BASIN/CONCHO VALLEY/BIG COUNTRY/EDWARDS PLATEAU

CITY           SKY/WX    TMP DP  RH WIND       PRES   REMARKS
ABILENE        CLOUDY    47  41  80 N7        30.09F
BIG SPRING       N/A     45  40  83 MISG        N/A
BROWNWOOD      CLOUDY    48  41  76 N9        30.07F
JUNCTION       CLOUDY    48  45  89 NE13      30.00F
MIDLAND        CLOUDY    45  39  79 NE9       30.09F
ODESSA         CLOUDY    45  39  79 NE7       30.09F
SAN ANGELO     CLOUDY    49  42  77 N13       30.05F
SONORA         CLOUDY    46  43  87 N8G20     30.07S
SWEETWATER     CLOUDY    47  42  84 N7        30.11S
WINK           CLOUDY    44  41  89 N12       30.10S
$$

TXZ055-058-074-075-080-082-042100-
FAR WEST/SOUTHWEST MOUNTAINS/TRANS PECOS

CITY           SKY/WX    TMP DP  RH WIND       PRES   REMARKS
ALPINE         CLOUDY    38  38  98 NE12      30.12F WCI  31
DRYDEN           N/A     47  43  86 N14G25    30.03F
EL PASO        MOSUNNY   54  26  34 N9        30.05F
FORT STOCKTON  CLOUDY    43  43 100 N10       30.10F FOG
GUADALUPE PASS SUNNY     45  33  63 E17       30.06F
MARFA          CLOUDY    38  36  92 N18       30.03F WCI  28
PECOS          HVY RAIN  41  40  96 NW9       30.12F
PRESIDIO       CLOUDY    50  42  74 N12       30.00F
$$

TXZ014-016-019-021>030-083-042100
TEXAS TECH WEST TEXAS MESONET/TEXAS PANHANDLE/NORTHERN SOUTH PLAINS

CITY           SKY/WX    TMP DP  RH WIND       PRES   REMARKS
ABERNATHY 5ENE   N/A     51  31  46 NE9       30.09F
AMARILLO 9NNE    N/A     49  20  31 NE3       30.09S
AMARILLO 7SSE    N/A     48  24  38 NE3       30.10S
AMHERST 1NE      N/A     50  28  43 NE8       30.09F
BOOTLEG 11WNW    N/A     47  22  38 N2        30.11F
CANADIAN 6E      N/A     52  25  35 NW10      30.05F
CAPROCK CYN SP   N/A     52  30  42 N1        30.09F
CHILDRESS 2NNE   N/A     54  32  43 N8        30.08F
CLARENDON 2WSW   N/A     53  24  32 N6        30.08F
CLAUDE 12SW      N/A     51  24  35 NW3       30.08S
DIMMITT 2NE      N/A     49  24  37 NE2G9     30.09F
FLOYDADA 2NNE    N/A     52  22  31 N12       30.07F
FRIONA 2NE       N/A     48  21  34 N3        30.11S
GOODLETT 3W      N/A     54  35  48 N7        30.08S
HART 3N          N/A     49  26  40 NE3       30.09F
HEREFORD 2NW     N/A     49  22  35 N2        30.11S
MCLEAN 1E        N/A     52  23  32 NW10      30.07S
MEMPHIS 1NE      N/A     55  29  37 N7        30.08F
MULESHOE 2SSW    N/A     49  28  44 NE5       30.10F
OLTON 6S         N/A     50  27  41 N6        30.09F
PALO DURO SP     N/A     50  24  35 N6        30.10S
PAMPA 2E         N/A     49  22  35 N7        30.07F
PLAINVIEW 1S     N/A     51  26  38 NE7       30.09F
SILVERTON 7ESE   N/A     52  28  40 N6        30.07F
TULIA 2ENE       N/A     49  27  41 N6        30.09F
TURKEY 2WSW      N/A     53  33  45 N8        30.09F
UMBARGER 3NNE    N/A     48  23  37 N3        30.10S
$$

TXZ033>036-039>041-045>048-042100
TEXAS TECH WEST TEXAS MESONET/SOUTH PLAINS

CITY           SKY/WX    TMP DP  RH WIND       PRES   REMARKS
AIKEN 3WSW       N/A     51  27  40 NE6       30.09F
ANDREWS 2NE      N/A     45  38  75 N7        30.11S
ANTON 6SSW       N/A     51  32  48 NE8       30.09F
BROWNFIELD 2S    N/A     48  35  58 NE8       30.08F
DENVR CTY 7WNW   N/A     49  30  47 N9        30.07F
GAIL 2ESE        N/A     50  36  59 N7        30.09F
LAMESA 2SE       N/A     49  37  65 NE8       30.09F
LEVELLAND 4S     N/A     50  28  43 NE8       30.09F
LUBBOCK 3WNW     N/A     51  29  42 NE10      30.09F
MORTON 1ENE      N/A     50  29  43 NE6       30.09F
ODONNELL 1N      N/A     48  37  65 NE7       30.07F
PLAINS 3N        N/A     50  31  48 NE7       30.08F
RALLS 1SE        N/A     51  30  44 NE8       30.08F
REESE CENTER     N/A     50  31  48 NE10      30.09F
SEAGRAVES 1SW    N/A     50  36  57 NE6       30.07F
SEMINOLE 2NNE    N/A     49  34  57 NE10      30.07F
SLATON 2NE       N/A     51  33  50 N9        30.08F
SNYDER 3E        N/A     45  40  81 N6        30.08F
SUNDOWN 8SW      N/A     51  29  43 NE8       30.08F
TAHOKA 3NNE      N/A     51  34  52 N9        30.07F
WOLFFORTH 6SSW   N/A     50  31  48 NE8       30.08F
$$

TXZ031-032-036>038-042>044-042100-
TEXAS TECH WEST TEXAS MESONET/ROLLING PLAINS

CITY           SKY/WX    TMP DP  RH WIND       PRES   REMARKS
ASPERMONT 3NE    N/A     54  40  59 NE6       30.08F
FLUVANNA 3WNW    N/A     48  37  65 NE10      30.07F
GRAHAM 5SSW      N/A     49  37  63 E6        30.07F
GUTHRIE 10WSW    N/A     53  37  54 N10       30.08F
HASKELL 1NW      N/A     50  41  70 N6        30.08F
JAYTON 1SSE      N/A     52  38  59 N6        30.08F
KNOX CITY 3NW    N/A     53  41  64 N7        30.09F
LK A HENRY 1NW   N/A     52  35  53 NE7       30.08F
NORTHFIELD 1S    N/A     55  34  45 N8        30.09F
ODELL 4ENE       N/A     54  41  61 N6        30.09F
PADUCAH 10SW     N/A     54  36  51 NE8G15    30.08F
POST 1NE         N/A     54  33  45 NE9G18    30.07F
RRING SPRGS 3N   N/A     52  31  44 NE9       30.08F
SEYMOUR 3NW      N/A     52  42  69 N10       30.08F
SPUR 1W          N/A     53  37  54 NE7       30.08F
WEINERT 2NNE     N/A     50  41  70 N8        30.09F
WHITE RVR 6NE    N/A     53  31  42 N10       30.07F
$$

TXZ052-054-060>062-072-078-127-140-154-169-042100-
TEXAS TECH WEST TEXAS MESONET/PERMIAN BASIN/
CONCHO VALLEY/BIG COUNTRY/EDWARDS PLATEAU

CITY           SKY/WX    TMP DP  RH WIND       PRES   REMARKS
COYANOSA 2N      N/A     43  43 100 NW5       30.12F
JUNCTION 1SSW    N/A     48  45  88 NE13      30.03R
MERTZON 3NNE     N/A     46  41  83 N9        30.09S
SAN ANGELO 7NW   N/A     47  40  76 N7        30.07F
STRLNG CT 4WSW   N/A     46  40  79 N10       30.10F
ST LAWRNCE 5SW   N/A     44  40  86 N9        30.10R
SWEETWATR 11SW   N/A     45  41  86 NE9       30.10F
WALL 1E          N/A     46  42  84 N13       30.08F
$$

TXZ055-058-074-075-080-082-042100-
TEXAS TECH WEST TEXAS MESONET/FAR WEST/SOUTHWEST MOUNTAINS/TRANS PECOS

CITY           SKY/WX    TMP DP  RH WIND       PRES   REMARKS
PRSMN GAP BBNP   N/A     45  43  92 NE16      30.01F
GUADLPE MTN NP   N/A     46  33  61 E10       30.07F
$$




USA.gov is the U.S. government's official web portal to all federal, state and local government web resources and services.